Weather reports worldwide

Advertisment
Girona/Costa Brava, Spain (8184): temperature & dewpoint: 06.12.2019 11:00:00 - 12.12.2019 11:00:00 (CET)Girona/Costa Brava, Spain (8184): wind speed: 06.12.2019 11:00:00 - 12.12.2019 11:00:00 (CET)Girona/Costa Brava, Spain (8184): wind direction: 06.12.2019 11:00:00 - 12.12.2019 11:00:00 (CET)Girona/Costa Brava, Spain (8184): reduced air pressure: 06.12.2019 11:00:00 - 12.12.2019 11:00:00 (CET)Girona/Costa Brava, Spain (8184): visibility: 06.12.2019 11:00:00 - 12.12.2019 11:00:00 (CET)
Date & Time tt [°C] td [°C] ff [km/h] ff [kn] dd ppp [hPa] vv [km]
12.12.2019 11:00:00 7,4 6,3 0 0 N 1013,5 -
12.12.2019 10:00:00 3,1 3,1 5 3 WSW 1014,8 -
12.12.2019 09:00:00 1,7 1,7 4 2 S 1014,5 -
12.12.2019 08:00:00 1,6 1,6 5 3 S 1014,7 -
12.12.2019 07:00:00 1,1 1,1 9 5 SSW 1014,5 -
12.12.2019 06:00:00 1,9 1,9 9 5 NNE 1014,2 -
12.12.2019 05:00:00 1,9 1,9 8 4 ESE 1014,8 -
12.12.2019 04:00:00 1,6 1,6 4 2 WSW 1014,7 -
12.12.2019 03:00:00 2,9 2,9 8 4 WNW 1014,6 -
12.12.2019 02:00:00 2,4 2,4 5 3 SW 1014,8 -
12.12.2019 01:00:00 3,2 3,2 5 3 ENE 1015,3 -
12.12.2019 00:00:00 2,9 2,9 8 4 NE 1015,8 -
11.12.2019 23:00:00 3,6 3,5 0 0 N 1015,8 -
11.12.2019 22:00:00 3,9 3,8 4 2 SW 1016,1 -
11.12.2019 21:00:00 4,9 4,6 4 2 ENE 1016,0 -
11.12.2019 20:00:00 6,1 5,5 8 4 WSW 1016,0 -
11.12.2019 19:00:00 7,5 6,4 9 5 S 1015,7 -
11.12.2019 18:00:00 8,1 6,8 2 1 SW 1015,2 -
11.12.2019 17:00:00 8,8 6,2 8 4 W 1014,3 -
11.12.2019 16:00:00 10,0 5,6 4 2 WNW 1014,2 -
11.12.2019 15:00:00 10,8 4,5 8 4 NNE 1013,7 -
11.12.2019 14:00:00 10,4 3,8 15 8 N 1013,6 -
11.12.2019 13:00:00 9,9 4,8 11 6 NE 1013,8 -
11.12.2019 12:00:00 9,6 4,6 0 0 N 1014,9 -
11.12.2019 11:00:00 6,8 4,3 5 3 SW 1016,3 -
11.12.2019 10:00:00 4,3 3,1 4 2 W 1016,8 -
11.12.2019 09:00:00 1,7 1,3 4 2 S 1017,5 -
11.12.2019 08:00:00 2,0 1,7 5 3 N 1018,1 -
11.12.2019 07:00:00 0,6 0,2 4 2 W 1018,3 -
11.12.2019 06:00:00 1,3 0,4 2 1 N 1018,7 -
11.12.2019 05:00:00 1,2 0,9 0 0 N 1019,2 -
11.12.2019 04:00:00 0,7 0,0 0 0 N 1020,3 -
11.12.2019 03:00:00 0,9 0,5 8 4 WSW 1020,8 -
11.12.2019 02:00:00 0,9 0,5 8 4 W 1021,4 -
11.12.2019 01:00:00 1,4 0,4 0 0 N 1021,9 -
11.12.2019 00:00:00 1,7 1,3 0 0 N 1022,2 -
10.12.2019 23:00:00 1,6 1,0 4 2 ENE 1022,3 -
10.12.2019 22:00:00 2,6 0,7 2 1 ESE 1022,3 -
10.12.2019 21:00:00 4,7 1,4 4 2 W 1022,0 -
10.12.2019 20:00:00 5,7 2,9 8 4 WSW 1022,3 -
10.12.2019 19:00:00 7,4 3,4 4 2 SSW 1022,2 24
10.12.2019 18:00:00 7,5 3,8 0 0 N 1021,8 -
10.12.2019 17:00:00 11,4 5,3 8 4 SW 1021,5 -
10.12.2019 16:00:00 14,3 5,9 9 5 SSW 1021,0 26
10.12.2019 15:00:00 14,3 5,9 11 6 SSW 1021,3 -
10.12.2019 14:00:00 13,9 6,2 15 8 SSW 1021,7 -
10.12.2019 13:00:00 13,2 5,6 15 8 SSW 1022,6 30
10.12.2019 12:00:00 12,0 4,5 15 8 SSW 1023,3 -
10.12.2019 11:00:00 11,6 1,2 8 4 W 1023,6 -
10.12.2019 10:00:00 7,9 2,1 9 5 W 1023,4 35
10.12.2019 09:00:00 7,1 1,8 8 4 N 1023,6 -
10.12.2019 08:00:00 6,7 1,8 16 9 N 1023,4 -
10.12.2019 07:00:00 7,2 2,1 16 9 N 1023,3 -
10.12.2019 06:00:00 6,9 1,8 18 10 NNE 1022,7 -
10.12.2019 05:00:00 7,2 1,7 15 8 NNE 1022,6 -
10.12.2019 04:00:00 6,6 1,9 13 7 NNE 1022,2 -
10.12.2019 03:00:00 7,2 2,6 16 9 NNE 1021,9 -
10.12.2019 02:00:00 7,7 2,5 22 12 NE 1021,5 -
10.12.2019 01:00:00 7,1 2,6 22 12 NNE 1021,9 -
10.12.2019 00:00:00 7,5 3,7 24 13 NNE 1021,7 -
09.12.2019 23:00:00 7,0 4,4 22 12 NNE 1021,9 -
09.12.2019 22:00:00 6,0 5,2 4 2 N 1021,9 -
09.12.2019 21:00:00 7,2 5,9 9 5 NNE 1021,7 -
09.12.2019 20:00:00 8,3 5,3 4 2 WSW 1020,6 -
09.12.2019 19:00:00 9,6 7,5 2 1 WNW 1019,7 -
09.12.2019 18:00:00 10,9 8,8 4 2 N 1019,3 -
09.12.2019 17:00:00 12,6 8,9 8 4 E 1018,0 -
09.12.2019 16:00:00 15,4 10,0 9 5 ESE 1017,5 -
09.12.2019 15:00:00 16,0 9,2 9 5 SE 1017,5 -
09.12.2019 14:00:00 15,4 9,4 8 4 S 1017,5 -
09.12.2019 13:00:00 14,5 9,5 9 5 S 1018,3 -
09.12.2019 12:00:00 12,9 9,1 5 3 WNW 1018,6 -
09.12.2019 11:00:00 9,9 7,6 4 2 NE 1019,8 -
09.12.2019 10:00:00 8,6 6,7 5 3 SSE 1018,8 -
09.12.2019 09:00:00 8,2 6,2 8 4 WNW 1018,9 -
09.12.2019 08:00:00 7,2 5,7 11 6 NW 1019,5 -
09.12.2019 07:00:00 4,8 4,8 8 4 N 1019,0 -
09.12.2019 06:00:00 3,4 3,4 0 0 N 1019,1 -
09.12.2019 05:00:00 5,7 5,7 5 3 WNW 1018,7 -
09.12.2019 04:00:00 4,6 4,3 8 4 SW 1018,9 -
09.12.2019 03:00:00 5,9 5,6 5 3 SSW 1019,4 -
09.12.2019 02:00:00 6,7 6,3 0 0 N 1019,1 -
09.12.2019 01:00:00 7,8 7,7 8 4 N 1019,7 -
09.12.2019 00:00:00 7,4 7,3 0 0 N 1019,9 -
08.12.2019 23:00:00 7,3 7,2 5 3 W 1019,6 -
08.12.2019 22:00:00 6,9 6,8 4 2 NE 1019,5 -
08.12.2019 21:00:00 6,7 6,3 0 0 N 1019,7 -
08.12.2019 20:00:00 7,5 6,9 4 2 WNW 1019,5 -
08.12.2019 19:00:00 8,7 7,9 8 4 SW 1019,2 4,0
08.12.2019 18:00:00 10,0 7,6 4 2 NW 1019,1 -
08.12.2019 17:00:00 13,8 8,7 0 0 N 1018,9 -
08.12.2019 16:00:00 16,0 9,0 0 0 N 1018,9 -
08.12.2019 15:00:00 16,2 9,5 4 2 W 1019,0 -
08.12.2019 14:00:00 15,4 10,0 8 4 S 1019,3 -
08.12.2019 13:00:00 14,6 9,7 4 2 SSE 1020,4 30
08.12.2019 12:00:00 11,5 7,4 4 2 ENE 1021,4 -
08.12.2019 11:00:00 9,8 7,7 4 2 ENE 1022,2 -
08.12.2019 10:00:00 6,8 6,2 4 2 SW 1022,6 30
08.12.2019 09:00:00 4,0 4,0 8 4 NNE 1022,7 -
08.12.2019 08:00:00 1,2 1,2 5 3 N 1022,5 -
08.12.2019 07:00:00 1,5 1,5 0 0 N 1022,1 -
08.12.2019 06:00:00 1,8 1,8 5 3 W 1021,9 -
08.12.2019 05:00:00 2,2 2,2 0 0 N 1022,2 -
08.12.2019 04:00:00 2,6 2,5 0 0 N 1022,7 -
08.12.2019 03:00:00 2,8 2,7 0 0 N 1022,8 -
08.12.2019 02:00:00 3,4 3,1 2 1 ESE 1023,0 -
08.12.2019 01:00:00 4,4 4,1 4 2 NW 1023,4 -
08.12.2019 00:00:00 4,9 4,5 0 0 N 1023,7 -
07.12.2019 23:00:00 5,4 4,2 0 0 N 1023,4 -
07.12.2019 22:00:00 8,2 6,8 9 5 NW 1023,2 -
07.12.2019 21:00:00 8,7 7,1 9 5 N 1023,2 -
07.12.2019 20:00:00 6,4 5,7 9 5 NNE 1022,9 -
07.12.2019 19:00:00 8,5 6,0 0 0 N 1022,2 35
07.12.2019 18:00:00 11,1 7,1 5 3 SSW 1021,4 -
07.12.2019 17:00:00 13,0 7,4 9 5 S 1021,0 -
07.12.2019 16:00:00 15,7 7,4 15 8 S 1020,7 35
07.12.2019 15:00:00 16,7 8,8 13 7 S 1020,4 -
07.12.2019 14:00:00 16,2 9,2 11 6 S 1020,9 -
07.12.2019 13:00:00 15,5 8,1 8 4 S 1021,5 35
07.12.2019 12:00:00 12,7 9,1 5 3 SSW 1022,4 -
07.12.2019 11:00:00 9,4 7,8 5 3 WSW 1023,0 -
07.12.2019 10:00:00 7,3 6,7 5 3 SSW 1022,8 35
07.12.2019 09:00:00 4,6 4,6 0 0 N 1022,7 -
07.12.2019 08:00:00 1,8 1,8 4 2 NE 1022,7 -
07.12.2019 07:00:00 2,4 2,4 0 0 N 1022,2 -
07.12.2019 06:00:00 2,4 2,4 4 2 W 1021,8 -
07.12.2019 05:00:00 2,7 2,7 4 2 S 1021,7 -
07.12.2019 04:00:00 3,7 3,7 0 0 N 1022,0 -
07.12.2019 03:00:00 3,8 3,8 0 0 N 1022,3 -
07.12.2019 02:00:00 4,4 4,4 0 0 N 1022,3 -
07.12.2019 01:00:00 4,2 4,1 4 2 ENE 1022,4 -
07.12.2019 00:00:00 4,6 4,3 0 0 N 1022,4 -
06.12.2019 23:00:00 5,2 4,8 0 0 N 1022,1 -
06.12.2019 22:00:00 5,9 5,5 0 0 N 1022,2 -
06.12.2019 21:00:00 6,1 5,2 4 2 NE 1022,3 -
06.12.2019 20:00:00 8,1 5,7 0 0 N 1022,3 -
06.12.2019 19:00:00 9,1 6,2 5 3 S 1021,9 -
06.12.2019 18:00:00 10,0 6,3 0 0 N 1021,6 -
06.12.2019 17:00:00 11,8 6,7 11 6 SSW 1021,2 -
06.12.2019 16:00:00 15,0 7,7 16 9 S 1021,0 -
06.12.2019 15:00:00 16,1 7,0 9 5 S 1020,8 -
06.12.2019 14:00:00 16,2 7,9 8 4 S 1021,4 -
06.12.2019 13:00:00 16,0 7,9 5 3 S 1022,1 -
06.12.2019 12:00:00 14,9 9,5 4 2 S 1023,1 -
06.12.2019 11:00:00 12,4 9,3 4 2 SSE 1024,0 -

tt = temperature
td = dewpoint
ff = wind speed
dd = wind direction
ppp = reduced air pressure
vv = visibility

Next stations